Station CRVA2 - 9454050 - Cordova, AK Image indicating link to RSS feed of recent meteorological observations for station CRVA2


Conditions at CRVA2 as of
(5:54 am AKDT)
1354 GMT on 05/02/2026:
     

Click on the graph icon in the table below to see a time series plot of the last five days of that observation.

5-day plot - Wind Direction Wind Direction (WDIR): W ( 280 deg true )
5-day plot - Wind Speed Wind Speed (WSPD): 6.0 kts
5-day plot - Wind Gust Wind Gust (GST): 8.9 kts
5-day plot - Atmospheric Pressure Atmospheric Pressure (PRES):29.98 in
5-day plot - Air Temperature Air Temperature (ATMP): 39.4 °F
5-day plot - Water Temperature Water Temperature (WTMP): 40.8 °F
5-day plot - Wind Chill Wind Chill (CHILL): 34.3 °F
5-day plot - Wind Speed at 10 Meters Wind Speed at 10 meters (WSPD10M): 5.8 kts
5-day plot - Wind Speed at 20 Meters Wind Speed at 20 meters (WSPD20M): 5.8 kts
5-day plot -  Wind Speed, Wind Gust and Atmospheric Pressure Combined plot of Wind Speed, Gust, and Air Pressure
NOS Water Level Observation Network Water Level
Previous observations
TIME
(AKDT)
5-day plot - Wind Direction
WDIR
 
5-day plot - Wind Speed
WSPD
kts
5-day plot - Wind Gust
GST
kts
5-day plot - Wave Height
WVHT
ft
5-day plot - Dominant Wave Period
DPD
sec
5-day plot - Average Wave Period
APD
sec
5-day plot - Mean Wave Direction
MWD
 
5-day plot - Atmospheric Pressure
PRES
in
5-day plot - Pressure Tendency
PTDY
in
5-day plot - Air Temperature
ATMP
°F
5-day plot - Water Temperature
WTMP
°F
5-day plot - Dew Point
DEWP
°F
5-day plot - Salinity
SAL
psu
5-day plot - Visibility
VIS
nmi
5-day plot - Tide (above MLLW)
TIDE
ft
2026-05-02 05:48 amSSW 6.0 9.9----29.98-- 40.8----
2026-05-02 05:42 am W 4.1 9.9----29.98-- 40.8----
2026-05-02 05:36 am NW 5.1 12.0----29.97-- 40.8----
2026-05-02 05:30 amENE 5.1 19.0----29.97- 39.0 40.8----
2026-05-02 05:24 am NE 8.9 21.0----29.97- 38.8 40.8----
2026-05-02 05:18 amENE 13.0 26.0----29.96-- 40.8----
2026-05-02 05:12 am NE 13.0 24.1----29.95-- 40.8----
2026-05-02 05:06 amENE 13.0 21.0----29.95-- 40.8----
2026-05-02 05:00 amWNW 8.9 15.0----29.94+0.09 40.1 40.8----
2026-05-02 04:54 amWNW 8.0 13.0----29.94- 39.7 40.8----
2026-05-02 04:48 am W 8.0 14.0----29.94-- 40.8----
2026-05-02 04:42 amWNW 7.0 15.9----29.94-- 40.8----
2026-05-02 04:36 am W 8.0 15.0----29.94-- 40.8----
2026-05-02 04:30 amWNW 5.1 13.0----29.94- 39.6 40.8----
2026-05-02 04:24 am NE 5.1 22.0----29.93- 39.4 40.8----
2026-05-02 04:18 am NE 15.0 32.1----29.93-- 40.8----
2026-05-02 04:12 am NE 15.9 29.9----29.93-- 40.8----
2026-05-02 04:06 amENE 19.0 34.0----29.92-- 40.8----
2026-05-02 04:00 amENE 19.0 33.0----29.91+0.09 38.8 40.8----
2026-05-02 03:54 am NE 22.9 34.0----29.91- 38.8 40.8----
2026-05-02 03:48 am NE 22.9 32.1------------
2026-05-02 03:42 am NE 15.9 34.0------------
2026-05-02 03:36 amENE 21.0 39.0------------
2026-05-02 03:30 amENE 21.0 36.9----29.90- 39.6 41.0----
2026-05-02 03:24 amENE 19.0 31.1----29.90- 39.9 41.0----
2026-05-02 03:18 am E 22.0 32.1----29.89-- 41.0----
2026-05-02 03:12 amENE 24.1 36.9----29.90-- 41.0----
2026-05-02 03:06 amENE 24.1 35.0----29.89-- 41.0----
2026-05-02 03:00 amENE 22.9 39.0----29.89+0.11 39.4 41.0----
2026-05-02 02:54 amENE 19.0 34.0----29.89- 39.4 41.0----
2026-05-02 02:48 amENE 22.9 35.0----29.89-- 41.0----
2026-05-02 02:42 amENE 21.0 35.0----29.88-- 41.0----
2026-05-02 02:36 amENE 20.0 35.9----29.88-- 41.0----
2026-05-02 02:30 amENE 21.0 39.0----29.87- 39.9 41.0----
2026-05-02 02:24 amENE 20.0 39.0----29.87- 39.9 41.0----
2026-05-02 02:18 am NE 21.0 34.0----29.86-------
2026-05-02 02:12 am NE 22.0 35.0----29.85-------
2026-05-02 02:06 am NE 20.0 38.1----29.85-------
2026-05-02 02:00 amENE 22.9 38.1----29.85+0.10 39.9 41.0----
2026-05-02 01:54 amENE 20.0 40.0----29.85- 39.7 41.0----
2026-05-02 01:48 am NE 20.0 36.9----29.85-- 41.0----
2026-05-02 01:42 am NE 18.1 46.0----29.85-- 41.0----
2026-05-02 01:36 am E 13.0 33.0----29.84-- 41.0----
2026-05-02 01:30 amENE 20.0 35.9----29.84- 39.7 41.0----
2026-05-02 01:24 am NE 21.0 41.0----29.84- 39.7 41.0----
2026-05-02 01:18 amENE 22.9 44.1----29.83-------
2026-05-02 01:12 am NE 22.0 39.0----29.83-------
2026-05-02 01:06 am NE 15.9 42.0----29.82-------
2026-05-02 01:00 amENE 20.0 36.9----29.82+0.08 39.4 41.0----
2026-05-02 12:54 amENE 18.1 36.9----29.81- 38.7 41.0----
2026-05-02 12:48 amENE 15.0 28.9----29.80-- 41.0----
2026-05-02 12:42 amENE 15.9 38.1----29.80-- 41.0----
2026-05-02 12:36 am NE 22.0 42.9----29.79-- 41.0----
2026-05-02 12:30 am NE 22.0 45.1----29.80- 38.8 41.0----
2026-05-02 12:24 am NE 21.0 36.9----29.79- 38.8 41.0----
2026-05-02 12:18 am NE 9.9 32.1----29.79-- 41.0----
2026-05-02 12:12 amENE 13.0 46.0----29.79-- 41.0----
2026-05-02 12:06 am NE 11.1 42.9----29.79-- 41.0----
2026-05-02 12:00 am NE 26.0 40.0----29.78+0.04 37.0 41.0----
2026-05-01 11:54 pm NE 21.0 49.9----29.77- 37.6 41.0----
2026-05-01 11:48 pmENE 22.0 44.1----29.76-- 41.0----
2026-05-01 11:42 pmENE 15.9 51.1----29.77-- 41.0----
2026-05-01 11:36 pmNNE 20.0 35.0----29.76-- 41.0----
2026-05-01 11:30 pm NE 8.0 46.0----29.77- 37.0 41.0----
2026-05-01 11:24 pm NE 13.0 29.9----29.76- 36.9 41.0----
2026-05-01 11:18 pm NE 20.0 46.0----29.75-- 41.0----
2026-05-01 11:12 pm NE 14.0 52.1----29.75-- 41.0----
2026-05-01 11:06 pm NE 22.0 42.0----29.76-- 41.0----
2026-05-01 11:00 pm S 8.0 45.1----29.75+0.01 36.1 40.8----
2026-05-01 10:54 pmENE 24.1 49.0----29.76- 37.0 41.0----
2026-05-01 10:48 pmNNE 22.0 45.1----29.75-------
2026-05-01 10:42 pmNNE 12.0 46.0----29.76-------
2026-05-01 10:36 pm N 11.1 34.0----29.76-------
2026-05-01 10:30 pmWSW 8.0 33.0----29.75- 37.2 41.0----
2026-05-01 10:24 pm N 13.0 22.0----29.75- 38.1 41.0----
2026-05-01 10:18 pmNNE 12.0 42.0----29.75-- 41.0----
2026-05-01 10:12 pmNNW 7.0 36.9----29.75-- 41.0----
2026-05-01 10:06 pm E 14.0 32.1----29.74-- 41.0----
2026-05-01 10:00 pm N 24.1 45.1----29.74-0.03 37.8 41.0----
2026-05-01 09:54 pmENE 15.9 24.1----29.74- 38.7 41.0----
2026-05-01 09:48 pm N 15.0 47.0----29.74-- 41.0----
2026-05-01 09:42 pm S 9.9 33.0----29.73-- 41.0----
2026-05-01 09:36 pm NE 15.9 25.1----29.74-- 41.0----
2026-05-01 09:30 pmNNE 14.0 31.1----29.74- 38.5 41.0----
2026-05-01 09:24 pm W 9.9 34.0----29.74- 38.1 41.0----
2026-05-01 09:18 pm N 6.0 41.0----29.74-- 40.8----
2026-05-01 09:12 pm NE 15.0 35.0----29.74-- 40.8----
2026-05-01 09:06 pmENE 14.0 36.9----29.74-- 41.0----
2026-05-01 09:00 pmENE 15.0 32.1----29.74-0.06 39.2 41.0----
2026-05-01 08:54 pmNNE 9.9 22.9----29.73- 38.8 41.0----
2026-05-01 08:48 pm NE 15.9 32.1----29.73-------
2026-05-01 08:42 pm NE 18.1 36.9----29.73-------
2026-05-01 08:36 pm NE 19.0 42.0----29.74-------
2026-05-01 08:30 pmNNE 20.0 36.9----29.73- 39.2 41.0----
2026-05-01 08:24 pmNNE 12.0 31.1----29.73- 39.4 41.0----
2026-05-01 08:18 pm NE 15.0 40.0----29.73-- 41.0----
2026-05-01 08:12 pm NE 15.0 49.9----29.73-- 41.0----
2026-05-01 08:06 pm E 19.0 47.0----29.75-- 41.0----
2026-05-01 08:00 pmNNE 13.0 41.0----29.74-0.09 39.0 41.0----
2026-05-01 07:54 pm NE 12.0 24.1----29.74- 39.2 41.0----
2026-05-01 07:48 pm NE 18.1 32.1----29.75-------
2026-05-01 07:42 pmNNE 19.0 35.9----29.75-------
2026-05-01 07:36 pmENE 15.9 39.0----29.75-------
2026-05-01 07:30 pm E 17.1 40.0----29.75- 38.5 41.0----
2026-05-01 07:24 pm NE 17.1 33.0----29.75- 39.6 41.0----
2026-05-01 07:18 pmNNE 12.0 31.1----29.75-- 41.0----
2026-05-01 07:12 pmENE 19.0 33.0----29.76-- 41.0----
2026-05-01 07:06 pmNNE 9.9 52.1----29.76-- 41.0----
2026-05-01 07:00 pm E 12.0 46.0----29.77-0.09 39.0 41.0----
2026-05-01 06:54 pm E 15.0 35.0----29.77- 39.0 41.0----
2026-05-01 06:48 pmENE 9.9 39.0----29.78-- 41.0----
2026-05-01 06:42 pmNNE 13.0 44.1----29.77-- 41.0----
2026-05-01 06:36 pm NE 20.0 46.0----29.76-- 41.0----
2026-05-01 06:30 pmENE 17.1 40.0----29.78- 39.2 41.0----
2026-05-01 06:24 pm E 15.9 35.9----29.78- 39.2 41.0----
2026-05-01 06:18 pmENE 15.0 35.9----29.80-------
2026-05-01 06:12 pm N 18.1 35.0----29.78-------
2026-05-01 06:06 pmENE 22.0 36.9----29.79-------
2026-05-01 06:00 pmENE 15.0 28.0----29.80-0.09 39.0 41.0----
2026-05-01 05:54 pmENE 20.0 47.0----29.79- 38.5 41.0----
2026-05-01 05:48 pmENE 12.0 34.0----29.80-- 41.0----
2026-05-01 05:42 pm E 13.0 32.1----29.81-- 41.2----
2026-05-01 05:36 pmENE 22.0 42.9----29.80-- 41.2----
2026-05-01 05:30 pm NE 15.0 41.0----29.81- 38.3 41.2----
2026-05-01 05:24 pmENE 13.0 38.1----29.81- 38.3 41.2----
2026-05-01 05:18 pmESE 12.0 42.9----29.82-- 41.2----
2026-05-01 05:12 pmENE 15.9 47.0----29.83-- 41.2----
2026-05-01 05:06 pm E 19.0 33.0----29.83-- 41.2----
2026-05-01 05:00 pm NE 15.0 28.9----29.83-0.09 38.7 41.2----
2026-05-01 04:54 pmENE 7.0 27.0----29.84- 37.8 41.2----
2026-05-01 04:48 pm SE 12.0 41.0----29.85-- 41.2----
2026-05-01 04:42 pmENE 15.0 46.0----29.85-- 41.2----
2026-05-01 04:36 pmENE 18.1 45.1----29.85-- 41.2----
2026-05-01 04:30 pmNNW 15.9 33.0----29.84- 38.8 41.2----
2026-05-01 04:24 pm NE 17.1 35.0----29.85- 38.5 41.2----
2026-05-01 04:18 pmNNE 12.0 25.1----29.85-- 41.2----
2026-05-01 04:12 pmENE 15.0 35.0----29.86-- 41.2----
2026-05-01 04:06 pmESE 8.9 32.1----29.86-- 41.2----
2026-05-01 04:00 pm NE 17.1 38.1----29.86-0.09 37.9 41.2----
2026-05-01 03:54 pmENE 22.0 38.1----29.86- 37.4 41.2----
2026-05-01 03:48 pmENE 14.0 36.9----29.87-------
2026-05-01 03:42 pm NE 13.0 38.1----29.87-------
2026-05-01 03:36 pm E 15.0 28.9----29.87-------
2026-05-01 03:30 pm NE 8.9 38.1----29.88- 38.7 41.2----
2026-05-01 03:24 pm NE 19.0 35.0----29.87- 39.4 41.2----
2026-05-01 03:18 pmENE 19.0 36.9----29.88-- 41.2----
2026-05-01 03:12 pm N 6.0 19.0----29.88-- 41.2----
2026-05-01 03:06 pmNNE 15.9 27.0----29.89-- 41.2----
2026-05-01 03:00 pmNNE 15.9 32.1----29.89-0.07 37.8 41.2----
2026-05-01 02:54 pm NE 11.1 34.0----29.89- 38.1 41.2----
2026-05-01 02:48 pm N 9.9 34.0----29.90-- 41.2----
2026-05-01 02:42 pm NE 12.0 28.0----29.89-- 41.2----
2026-05-01 02:36 pm NE 8.0 28.9----29.90-- 41.2----
2026-05-01 02:30 pm N 8.9 21.0----29.90-- 41.2----
2026-05-01 02:24 pm NE 19.0 33.0----29.90-- 41.2----
2026-05-01 02:18 pm NE 14.0 29.9----29.91-------
2026-05-01 02:12 pmNNE 13.0 26.0----29.91-------
2026-05-01 02:06 pm N 14.0 32.1----29.91-------
2026-05-01 02:00 pm N 9.9 21.0----29.92-0.05 38.1 41.2----
2026-05-01 01:54 pm N 14.0 26.0----29.92- 38.1 41.2----
2026-05-01 01:48 pm N 12.0 20.0----29.92-- 41.2----
2026-05-01 01:42 pm N 11.1 17.1----29.93-- 41.2----
2026-05-01 01:36 pm N 11.1 20.0----29.94-- 41.2----
2026-05-01 01:30 pmNNE 12.0 28.0----29.94- 37.6 41.2----
2026-05-01 01:24 pm N 15.9 28.0----29.94- 37.4 41.2----
2026-05-01 01:18 pm N 11.1 22.0----29.94-------
2026-05-01 01:12 pm N 5.1 20.0----29.95-------
2026-05-01 01:06 pm NW 7.0 17.1----29.94-------
2026-05-01 01:00 pmNNE 13.0 28.9----29.95-0.02 38.1 41.2----
2026-05-01 12:54 pm NE 8.0 21.0----29.95- 38.1 41.2----
2026-05-01 12:48 pm NW 8.0 20.0----29.95-------
2026-05-01 12:42 pmNNE 11.1 19.0----29.96-------
2026-05-01 12:36 pmNNE 6.0 15.9----29.96-------
2026-05-01 12:30 pm N 6.0 15.0----29.96- 38.5 41.2----
2026-05-01 12:24 pmNNE 8.0 17.1----29.96- 38.7 41.2----
2026-05-01 12:18 pmNNE 4.1 20.0------------
2026-05-01 12:12 pmNNE 15.9 27.0------------
2026-05-01 12:06 pmNNE 8.0 20.0------------
2026-05-01 12:00 pm E 5.1 21.0----29.96-0.04 38.7 41.2----
2026-05-01 11:54 am NE 8.0 22.9----29.96- 38.7 41.2----
2026-05-01 11:48 am N 14.0 28.0----29.96-------
2026-05-01 11:42 amENE 11.1 22.0----29.96-------
2026-05-01 11:36 am NE 9.9 22.0----29.96-------
2026-05-01 11:30 am W 5.1 19.0----29.96- 38.5 41.2----
2026-05-01 11:24 amENE 15.9 27.0----29.97- 38.5 41.2----
2026-05-01 11:18 amNNE 8.9 25.1----29.96-- 41.4----
2026-05-01 11:12 amNNE 17.1 29.9----29.96-- 41.2----
2026-05-01 11:06 amNNE 11.1 28.9----29.97-- 41.2----
2026-05-01 11:00 amNNE 14.0 31.1----29.97-0.06 37.9 41.2----
2026-05-01 10:54 amNNE 15.9 38.1----29.97- 38.7 41.2----
2026-05-01 10:48 amNNE 11.1 24.1----29.97-------
2026-05-01 10:42 amNNE 15.9 38.1----29.97-------
2026-05-01 10:36 amENE 12.0 41.0----29.97-------
2026-05-01 10:30 amENE 15.0 45.1----29.98- 38.8 41.2----
2026-05-01 10:24 am N 15.0 40.0----29.97- 39.4 41.2----
2026-05-01 10:18 am NE 13.0 39.0----29.97-------
2026-05-01 10:12 amNNE 13.0 36.9----29.97-------
2026-05-01 10:06 am E 15.9 56.9----29.98-------
2026-05-01 10:00 am NE 19.0 42.0----29.97-0.06 41.0 41.2----
2026-05-01 09:48 am N 14.0 26.0------------
2026-05-01 09:42 amNNE 18.1 33.0------------
2026-05-01 09:36 am E 21.0 34.0------------
2026-05-01 09:30 amNNE 11.1 25.1----29.98- 41.7 41.2----
2026-05-01 09:24 amNNW 7.0 34.0----29.99- 42.3 41.2----
2026-05-01 09:18 am N 9.9 29.9----29.98-- 41.2----
2026-05-01 09:12 amENE 6.0 26.0----30.00-- 41.2----
2026-05-01 09:06 amWNW 5.1 15.9----30.00-- 41.2----
2026-05-01 09:00 amWSW 8.9 21.0----30.01-0.04 43.0 41.2----
2026-05-01 08:54 am NE 7.0 22.0----30.01- 43.0 41.2----
2026-05-01 08:48 am N 11.1 21.0----30.00-------
2026-05-01 08:42 amENE 13.0 45.1----30.01-------
2026-05-01 08:36 am NE 20.0 28.0----29.99-------
2026-05-01 08:30 amNNE 15.9 31.1----30.01- 43.5 41.2----
2026-05-01 08:24 amNNE 18.1 27.0----30.01- 43.3 41.2----
2026-05-01 08:18 amENE 15.9 40.0----30.02- 43.7 41.2----
2026-05-01 08:12 amNNE 8.9 28.9----30.02- 43.7 41.2----
2026-05-01 08:06 amESE 9.9 31.1----30.02- 43.9 41.4----
2026-05-01 08:00 am N 5.1 35.0----30.03-0.04 43.9 41.4----
2026-05-01 07:54 am N 13.0 28.0----30.02- 43.9 41.2----
2026-05-01 07:48 am NE 17.1 28.0----30.02-------
2026-05-01 07:42 am N 15.9 28.0----30.01-------
2026-05-01 07:36 am N 13.0 19.0----30.02-------
2026-05-01 07:30 am N 13.0 20.0----30.02- 43.7 41.2----
2026-05-01 07:24 am E 13.0 28.0----30.03- 43.7 41.2----
2026-05-01 07:18 am N 12.0 25.1----30.02- 43.9 41.2----
2026-05-01 07:12 amNNE 8.9 21.0----30.02- 44.1 41.2----
2026-05-01 07:06 am NE 15.0 27.0----30.02- 44.1 41.2----
2026-05-01 07:00 amENE 5.1 15.9----30.03-0.05 43.9 41.2----
2026-05-01 06:54 am NE 13.0 22.9----30.03- 43.7 41.2----
2026-05-01 06:48 amWSW 8.0 14.0------------
2026-05-01 06:42 am SW 8.9 15.9------------
2026-05-01 06:36 amWNW 4.1 8.9------------
2026-05-01 06:30 am W 1.0 5.1----30.05- 43.3 41.4----
2026-05-01 06:24 am W 2.9 6.0----30.04- 43.5 41.4----
2026-05-01 06:18 amWNW 5.1 8.0----30.05-------
2026-05-01 06:12 amWNW 5.1 14.0----30.04-------
2026-05-01 06:06 am W 7.0 12.0----30.04-------
2026-05-01 06:00 amSSW 5.1 6.0----30.05-0.06 43.2 41.4----
2026-05-01 05:54 am NW 5.1 13.0----30.05- 43.7 41.4----